STARLINK-3948 (52546 NORAD) Tracking and Keplerian Element Data
This shows tracking and keplerian element data for the satellite.
Feedback or suggestion? Click here.
Element | Value |
Catalog | 52546 |
Name | STARLINK-3948 |
Epoch Orbit | 130 |
Epoch Day | 167.08334491 |
Epoch Year | 2022 |
RAAN | 130.4125 |
Inclination | 53.2171 |
Eccentricity | 0.0001352 |
Argument of Perigee | 52.3948 |
Mean Anonmoly | 36.3947 |
Mean Motion | 15.49960647 |
Decay Rate | -0.00071795 |
L1 | 1 52546U 22051P 22167.08334491 -.00071795 00000+0 -12652-2 0 9990 |
L2 | 2 52546 53.2171 130.4125 0001352 52.3948 36.3947 15.49960647 1308 |
Live tracking and technical data element details for STARLINK-3948 (NORAD 52546). STARLINK-3948 can be tracked NOW for your location showing map with azimuth and elevation plus other details from your city location.
Track the satellite on the map from your city or location and see movement details for azimuth, elevation, latitude, longitude, range, height, and movement on the map or in text.
IsCatalogInMostPopularTable: catalog: 52546, numindb: 3
Update: records affected: 1
GetName: 52546 STARLINK-3948
Hit Count: updated at: Sat, 25 Jun 2022 05:43:24 GMT